Other Public Products
Issued by NWS Grand Forks, ND

Home | Current Version | Previous Version | Text Only | Print | Product List | Glossary Off
Versions: 1 2 3 4 5 6 7 8 9 10 11 12 13 14 15 16 17 18 19 20 21 22 23 24 25 26 27 28 29 30 31 32 33 34 35 36 37 38 39 40 41 42 43 44 45 46 47 48 49 50

000
FPUS83 KFGF 061710
OPUFGF
PRAIRIE TO PINES WEATHER ROUNDUP
NATIONAL WEATHER SERVICE EASTERN NORTH DAKOTA/GRAND FORKS ND
1100 AM CST FRI MAR 06 2015

 **SATELLITE DATA USED TO AUGMENT SKY COVER AT AUTOMATED STATIONS**
 *****  WEATHER ACROSS EASTERN NORTH DAKOTA  *****

CITY           SKY/WX    TMP DP  RH WIND       PRES   REMARKS
GRAND FORKS    MOSUNNY   30  14  51 NW5       30.08R
GRAND FORKS AF SUNNY     31  14  49 W8        30.07S WCI  23
GRAND CITY NWS   N/A     32 N/A N/A NW5         N/A
BUXTON         NOT AVBL
DEVILS LAKE    MOSUNNY   25  16  68 W8        30.06S WCI  16
FARGO          SUNNY     30  16  56 NW12      30.10R WCI  20
WAHPETON ARPT  SUNNY     28  14  54 N10       30.11S WCI  19
$$

 *****  WEATHER ACROSS CENTRAL AND WESTERN NORTH DAKOTA  *****

CITY           SKY/WX    TMP DP  RH WIND       PRES   REMARKS
JAMESTOWN      SUNNY     30  18  60 W9        30.09R WCI  22
BISMARCK       PTSUNNY   31  18  58 S3        30.13S
MINOT          PTSUNNY   29  16  58 S9        30.04F WCI  20
MINOT AFB      PTSUNNY   28  21  75 SW12      30.03F WCI  18
GARRISON         N/A     29  20  69 S6        30.07F WCI  23
WILLISTON      CLOUDY    31  21  66 S6        30.03F
DICKINSON      CLOUDY    38  18  44 W9        30.04F
HETTINGER      CLOUDY    42  17  36 W7        30.08F
$$

 *****  OTHER OBSERVATIONS NORTHEAST NORTH DAKOTA  *****

CITY           SKY/WX    TMP DP  RH WIND       PRES   REMARKS
WALHALLA         N/A     27  14  59 SW8       30.03F WCI  18
LANGDON        NOT AVBL
CAVALIER       FAIR      27  16  63 W13       30.04S WCI  16
GRAFTON        NOT AVBL
CANDO          FAIR      25  16  68 W10       30.04F WCI  15
FORT TOTTEN      N/A     28  16  60 W6        29.95  WCI  22
ROLLA          FAIR      28  18  64 SW15      30.00F WCI  17
RUGBY          FAIR      23  18  80 SW8       30.05F WCI  14
 ***** THE ABOVE OBSERVATIONS ARE NON NWS ARE NOT QUALITY
        CONTROLLED AND MAY MIS-REPORT RAIN FOR SNOW...
$$

 *****  OTHER OBSERVATIONS SOUTHEAST NORTH DAKOTA *****

CITY           SKY/WX    TMP DP  RH WIND       PRES   REMARKS
COOPERSTOWN    NOT AVBL
VALLEY CITY    FAIR      28  19  69 NW10      30.09S WCI  19
OAKES            N/A     28  18  64 W12       30.11S WCI  18
GWINNER        SUNNY     32  18  55 NW12      30.11S WCI  23
BUFFALO        NOT AVBL
WYNDMERE         N/A     28  16  59 NW9         N/A  WCI  20
 ***** THE ABOVE OBSERVATIONS ARE NON NWS ARE NOT QUALITY
       CONTROLLED AND MAY MIS-REPORT RAIN FOR SNOW...
$$

  *****  WEATHER ACROSS NORTHERN MINNESOTA  *****

CITY           SKY/WX    TMP DP  RH WIND       PRES   REMARKS
FLAG ISLAND    SUNNY     23  10  58 NW12G18   29.95F WCI  12
WARROAD        SUNNY     21  10  63 W7        30.00R WCI  13
ROSEAU         SUNNY     21  12  68 W8        30.01S WCI  12
HALLOCK        NOT AVBL
THF RVR FALLS  SUNNY     21  14  73 NW8       30.05S WCI  12
HALSTAD        NOT AVBL
FOSSTON        SUNNY     25  10  54 W9        30.06R WCI  15
BAUDETTE       SUNNY     22   9  57 W9        29.97R WCI  12
WASKISH        SUNNY     21  12  68 SW8       30.01R WCI  12
CROOKSTON      SUNNY     27  16  63 NW7       30.09R WCI  19
$$
  *****  WEATHER ACROSS CENTRAL AND WEST MINNESOTA  *****

CITY           SKY/WX    TMP DP  RH WIND       PRES   REMARKS
BEMIDJI        SUNNY     24  10  55 W16       30.01S WCI  11
PARK RAPIDS    SUNNY     26  11  52 NW13      30.02R WCI  15
WADENA         SUNNY     25  10  54 NW10      30.04S WCI  15
DETROIT LAKES  SUNNY     25  16  68 NW9       30.07S WCI  15
MOORHEAD       SUNNY     28  16  59 NW9       30.10S WCI  20
FERGUS FALLS   SUNNY     23  12  63 N9        30.12S WCI  13
ELBOW LAKE     FAIR      22  15  74 NW8       30.08R WCI  13
MORRIS MN      SUNNY     27  18  69 NW12      30.09R WCI  16
STAPLES        SUNNY     25  10  54 NW8       30.04R WCI  16
WHEATON        SUNNY     25  14  63 NW9       30.14R WCI  15
$$
  *****  WEATHER ELSEWHERE ACROSS MINNESOTA  *****

CITY           SKY/WX    TMP DP  RH WIND       PRES   REMARKS
DULUTH         MOSUNNY   23  10  57 W17       29.93S WCI   9
INTRNTL FALLS  SUNNY     22   7  52 W14G21    29.95R WCI   9
ELY            SUNNY     23   7  50 NW8G16    29.89S WCI  14
CLOQUET        SUNNY     25   9  50 W9        29.95S WCI  15
BRAINERD       SUNNY     26  10  50 N13       30.02R WCI  15
HIBBING        SUNNY     23   9  55 NW18      29.94S WCI   9
ALEXANDRIA     SUNNY     24  13  62 NW8       30.05R WCI  15
SAINT CLOUD    SUNNY     26  13  57 NW8       30.04R WCI  18
MINNEAPOLIS    SUNNY     29  12  49 SW8       30.06F WCI  21
$$

  *****  WEATHER ACROSS SOUTH DAKOTA  *****

CITY           SKY/WX    TMP DP  RH WIND       PRES   REMARKS
SIOUX FALLS    MOSUNNY   40  21  46 W13       30.11S
BROOKINGS      NOT AVBL
WATERTOWN      SUNNY     28  17  63 N12       30.09S WCI  18
HURON          SUNNY     33  19  56 N9        30.14S
SISSETON       NOT AVBL
ABERDEEN       SUNNY     32  17  54 NW10      30.15R WCI  24
MITCHELL       SUNNY     42  20  41 N12       30.14R
PIERRE         MOSUNNY   39  20  46 W7        30.14S
MOBRIDGE       PTSUNNY   34  18  52 W3        30.11R
RAPID CITY     MOSUNNY   50  20  30 VRB3      30.13F
$$

  *****  SOME WEATHER IN NEARBY STATES *****

CITY           SKY/WX    TMP DP  RH WIND       PRES   REMARKS
GLASGOW MT     SUNNY     42  23  46 W8        30.03F
GREAT FALLS MT PTSUNNY   51  19  28 SW25      30.15R
CHEYENNE WY    SUNNY     41  13  31 W12       30.28R
SCOTTSBLUFF NE SUNNY     49  22  34 W12       30.26S
OMAHA NE       SUNNY     42  17  36 SW7       30.22F
DES MOINES IA  SUNNY     38  18  44 W10       30.19F
DAVENPORT IA   SUNNY     25  11  55 S20G25    30.26F WCI  11
CHICAGO IL     PTSUNNY   19   7  59 S18       30.34F WCI   4
EAU CLAIRE WI  CLOUDY    22   8  55 SW12      30.07S WCI  10
LA CROSSE WI   SUNNY     23  10  57 S12       30.15F WCI  12
$$

  *****  SOME NATIONAL WEATHER *****

CITY           SKY/WX    TMP DP  RH WIND       PRES   REMARKS
LA GUARDIA NY  SUNNY     22   2  42 CALM      30.53F
RALEIGH NC     MOSUNNY   30   9  41 N7G16     30.51F WCI  23
ATLANTA GA     PTSUNNY   42  31  64 VRB6      30.42S
NEW ORLEANS LA PTSUNNY   43  23  45 N16       30.51S
OKLAHOMA CITY  SUNNY     46  23  40 SW12      30.48F
ALBUQUERQUE NM SUNNY     43  16  33 N6        30.42S
SALT LAKE CITY MOSUNNY   41  25  53 SE7       30.47R
LOS ANGELES CA SUNNY     67  24  19 NE6       30.16R
BOISE ID       SUNNY     44  22  41 CALM      30.46R
SEATTLE WA     PTSUNNY   45  36  70 CALM      30.42R
$$

*** WEATHER ACROSS MANITOBA...SASKATCHEWAN AND ONTARIO ***
                ***ONTARIO***

CITY           SKY/WX    TMP DP  RH WIND       PRES   REMARKS
GERALDTON      LGT SNOW  16   7  67 SW17      29.74F VSB 1   WCI   0
THUNDER BAY    MOSUNNY   25  10  54 W14       29.86F WCI  13
SIOUX LOOKOUT  MOSUNNY   18   3  53 NW16      29.84S WCI   3
TORONTO        PTSUNNY   18   3  53 SW16G25   30.43F WCI   3
BIG TROUT LK   CLOUDY     9  -2  61 NW17      29.70S WCI -10
PICKLE LAKE    PTSUNNY   16   1  53 W16G23    29.72S WCI   0
DRYDEN         SUNNY     19   7  58 W16       29.87S WCI   5
KENORA         MOSUNNY   21   7  53 NW12G18   29.92S WCI   9
$$
                *** MANITOBA***

CITY           SKY/WX    TMP DP  RH WIND       PRES   REMARKS
BRANDON        PTSUNNY   19  12  73 W7        29.97F WCI  10
DAUPHIN          N/A     30  18  59 MISG      29.86F
ISLAND LAKE    MOSUNNY    9  -2  61 W10       29.81R WCI  -6
PILOT MOUND      N/A     18  12  79 S9          N/A  WCI   6
THE PAS        FLURRIES  21  18  86 SE9       29.76F WCI  11
THOMPSON       FLURRIES   5  -6  61 NW6       29.82R WCI  -6
WINNIPEG       MOSUNNY   21  10  63 W9        30.00F WCI  11
LYNN LAKE      FLURRIES   9   3  78 CALM      29.77S
CHURCHILL      CRYSTALS -15 -20  76 W10       29.84R WCI -35
GILLAM         MOSUNNY   -4 -13  65 W7        29.82R WCI -18
$$
                ***SASKATCHEWAN***

CITY           SKY/WX    TMP DP  RH WIND       PRES   REMARKS
ESTEVAN        CLOUDY    28  19  69 SW15      29.98F WCI  17
KINDERSLEY     MOSUNNY   37  30  75 W16       29.94R
LLOYDMINSTER   LGT RAIN  37  32  81 NW18G28   29.85R
PRINCE ALBERT  PTSUNNY   32  25  74 W5        29.78F
REGINA         CLOUDY    27  23  86 S10       29.91F WCI  17
YORKTON        LGT SNOW  28  19  69 SW18      29.85F WCI  16



USA.gov is the U.S. government's official web portal to all federal, state and local government web resources and services.